Location: Noordwijk
(52.2400°N, 4.4500°E)
Time: 01:33:23
(UTC+00:00)

LilacSat-2 - Visible Passes

Search period start: 10 December 2022 00:00
Search period end: 20 December 2022 00:00
Orbit: 504 x 526 km, 97.5° (Epoch: 09 December)

Date Brightness Start Highest point End Pass type
(mag) Time Alt. Az. Time Alt. Az. Time Alt. Az.
10 Dec ? 05:33:49 10° NNE 05:37:28 53° E 05:41:06 10° S visible
10 Dec ? 16:19:07 10° SSE 16:22:48 58° ENE 16:26:30 10° N visible
10 Dec ? 17:54:59 10° SW 17:57:13 15° W 17:59:26 10° NW visible
11 Dec ? 05:18:54 10° NNE 05:22:22 36° E 05:25:49 10° SSE visible
11 Dec ? 06:53:16 10° N 06:56:16 24° WNW 06:59:16 10° WSW visible
11 Dec ? 17:39:08 10° SW 17:42:02 21° W 17:44:56 10° NW visible
12 Dec ? 05:04:05 10° NE 05:07:14 26° E 05:10:22 10° SSE visible
12 Dec ? 06:37:59 10° N 06:41:19 32° WNW 06:44:39 10° SW visible
12 Dec ? 17:23:34 10° SSW 17:26:52 29° W 17:30:11 10° NNW visible
13 Dec ? 04:49:24 10° NE 04:52:04 18° E 04:54:43 10° SE visible
13 Dec ? 06:22:46 10° N 06:26:21 45° WNW 06:29:53 10° SW visible
13 Dec ? 17:08:11 10° S 17:11:45 41° W 17:15:18 10° NNW visible
14 Dec ? 04:35:00 10° ENE 04:36:51 13° E 04:38:41 10° ESE visible
14 Dec ? 06:07:37 10° N 06:11:19 66° WNW 06:15:00 10° SSW visible
14 Dec ? 16:52:56 10° S 16:56:38 60° WSW 17:00:21 10° NNW visible
15 Dec ? 05:52:31 10° NNE 05:56:16 85° ESE 05:59:59 10° SSW visible
15 Dec ? 16:37:48 10° SSE 16:41:33 88° WSW 16:45:18 10° NNW visible
16 Dec ? 05:37:29 10° NNE 05:41:11 58° E 05:44:51 10° S visible
16 Dec ? 16:22:48 10° SSE 16:26:29 64° ENE 16:30:11 10° N visible
16 Dec ? 17:58:57 10° WSW 18:00:56 14° W 18:02:56 10° WNW visible
17 Dec ? 05:22:31 10° NNE 05:26:03 39° E 05:29:34 10° S visible
17 Dec ? 06:56:59 10° NNW 06:59:54 22° WNW 07:02:49 10° WSW visible
17 Dec ? 16:07:54 10° SE 16:11:27 44° ENE 16:15:01 10° N visible
17 Dec ? 17:42:58 10° SW 17:45:43 19° W 17:48:27 10° NW visible
18 Dec ? 05:07:38 10° NE 05:10:53 28° E 05:14:07 10° SSE visible
18 Dec ? 06:41:39 10° N 06:44:55 30° WNW 06:48:12 10° SW visible
18 Dec ? 17:27:18 10° SSW 17:30:30 27° W 17:33:43 10° NW visible
19 Dec ? 04:52:52 10° NE 04:55:41 20° E 04:58:29 10° SE visible
19 Dec ? 06:26:23 10° N 06:29:54 42° WNW 06:33:26 10° SW visible
19 Dec ? 17:11:50 10° SSW 17:15:19 38° W 17:18:50 10° NNW visible
